Greenville Downtown, SC

11:05 PM EDT on July 21, 2017 (GMT -0400)
Greenville Downtown

Weather History for KGMU - January, 2014

Change the Weather History Date:

Monday, January 6, 2014

  Actual Average Record
Temperature  
Mean Temperature 28 °F -  
Max Temperature 44 °F 51 °F 69 °F (2007)
Min Temperature 12 °F 34 °F 12 °F (2014)
Degree Days  
Heating Degree Days 37    
Moisture  
Dew Point 22 °F    
Average Humidity 66    
Maximum Humidity 100    
Minimum Humidity 23    
Precipitation  
Precipitation 0.08 in - - ()
Sea Level Pressure  
Sea Level Pressure 29.91 in    
Wind  
Wind Speed 8 mph (West)    
Max Wind Speed 21 mph    
Max Gust Speed 33 mph    
Visibility 8 miles    
Events Fog , Rain    
Averages and records for this station are not official NWS values.
T = Trace of Precipitation, MM = Missing Value Source: NWS Daily Summary

Daily Weather History Graph

Daily Weather History Graph

Search for Another Location

Airport or City:

Trip Planner

Search our weather history database for the weather conditions in past years. The results will help you decide how hot, cold, wet, or windy it might be!

Date:

Astronomy

Jan. 06, 2014 Rise Set
Actual Time 7:37 AM EST 5:33 PM EST
Civil Twilight 7:09 AM EST 6:01 PM EST
Nautical Twilight 6:38 AM EST 6:32 PM EST
Astronomical Twilight 6:07 AM EST 7:03 PM EST
Moon 11:07 AM EST (1/6) 11:48 PM EST (1/6)
Length of Visible Light 10h 51m
Length of Day
9h 55m
Waxing Crescent, 34% of the Moon is Illuminated
Jan 6
Waxing Crescent
Jan 7
First Quarter
Jan 15
Full
Jan 24
Last Quarter
Jan 30
New

Hourly Weather History & Observations

Time (EST) Temp. Windchill Dew Point Humidity Pressure Visibility Wind Dir Wind Speed Gust Speed Precip Events Conditions
12:12 AM 39.2 °F 35.9 °F 39.2 °F 100% 29.76 in 1.5 mi West 4.6 mph - N/A   Overcast
12:27 AM 39.2 °F 34.2 °F 39.2 °F 100% 29.74 in 0.5 mi SW 6.9 mph - N/A Fog Fog
12:53 AM 39.9 °F 36.7 °F 39.0 °F 97% 29.75 in 0.5 mi West 4.6 mph - N/A Fog Fog
1:34 AM 41.0 °F - 39.2 °F 93% 29.71 in 1.0 mi Calm Calm - 0.00 in Rain Light Rain
1:53 AM 41.0 °F 38.0 °F 39.0 °F 93% 29.73 in 2.0 mi West 4.6 mph - 0.04 in Rain Rain
2:07 AM 41.0 °F 35.8 °F 39.2 °F 93% 29.73 in 3.0 mi WNW 8.1 mph - 0.01 in Rain Rain
2:40 AM 41.0 °F 38.0 °F 39.2 °F 93% 29.71 in 6.0 mi SW 4.6 mph - 0.04 in Rain Light Rain
2:53 AM 41.0 °F 38.0 °F 39.9 °F 96% 29.72 in 10.0 mi South 4.6 mph - 0.04 in   Overcast
3:08 AM 41.0 °F 37.1 °F 39.2 °F 93% 29.71 in 10.0 mi SW 5.8 mph - N/A   Overcast
3:38 AM 42.8 °F 36.6 °F 39.2 °F 87% 29.71 in 10.0 mi SW 11.5 mph 18.4 mph N/A   Overcast
3:53 AM 42.1 °F 35.7 °F 41.0 °F 96% 29.72 in 10.0 mi WSW 11.5 mph - N/A   Overcast
4:14 AM 42.8 °F 37.0 °F 41.0 °F 93% 29.70 in 10.0 mi SW 10.4 mph - 0.00 in Rain Light Rain
4:53 AM 44.1 °F 38.6 °F 39.9 °F 85% 29.71 in 10.0 mi WSW 10.4 mph - 0.00 in   Overcast
5:53 AM 42.1 °F 37.7 °F 37.9 °F 85% 29.75 in 10.0 mi West 6.9 mph - N/A   Mostly Cloudy
6:53 AM 39.0 °F 31.4 °F 32.0 °F 76% 29.78 in 10.0 mi WSW 12.7 mph - N/A   Scattered Clouds
7:53 AM 36.0 °F 31.1 °F 30.9 °F 82% 29.83 in 10.0 mi WNW 5.8 mph - N/A   Clear
8:27 AM 37.4 °F - 30.2 °F 75% 29.85 in 10.0 mi Calm Calm - N/A   Mostly Cloudy
8:53 AM 36.0 °F 31.1 °F 28.0 °F 73% 29.89 in 10.0 mi NNE 5.8 mph - N/A   Overcast
9:53 AM 36.0 °F 32.1 °F 25.0 °F 64% 29.94 in 10.0 mi North 4.6 mph - N/A   Overcast
10:02 AM 35.6 °F 31.7 °F 24.8 °F 65% 29.93 in 10.0 mi North 4.6 mph - N/A   Overcast
10:53 AM 37.0 °F 29.8 °F 24.1 °F 59% 29.97 in 10.0 mi WNW 10.4 mph - N/A   Mostly Cloudy
11:53 AM 39.0 °F 30.3 °F 19.0 °F 45% 29.95 in 10.0 mi West 16.1 mph 24.2 mph N/A   Clear
12:53 PM 37.9 °F 28.2 °F 16.0 °F 41% 29.94 in 10.0 mi West 18.4 mph 26.5 mph N/A   Clear
1:53 PM 37.9 °F 27.9 °F 10.9 °F 33% 29.96 in 10.0 mi West 19.6 mph 31.1 mph N/A   Clear
2:53 PM 36.0 °F 25.3 °F 10.0 °F 34% 29.98 in 10.0 mi West 19.6 mph 27.6 mph N/A   Clear
3:48 PM 33.8 °F 22.5 °F 6.8 °F 32% 29.98 in 10.0 mi WSW 19.6 mph 33.4 mph N/A   Scattered Clouds
3:53 PM 33.1 °F 21.2 °F 7.0 °F 34% 30.00 in 10.0 mi West 20.7 mph 33.4 mph N/A   Scattered Clouds
4:53 PM 28.0 °F 15.7 °F 3.0 °F 34% 30.06 in 10.0 mi WSW 17.3 mph 27.6 mph N/A   Clear
5:53 PM 24.1 °F 11.5 °F -9.0 °F 23% 30.10 in 10.0 mi West 15.0 mph 24.2 mph N/A   Clear
6:53 PM 21.0 °F 6.6 °F -7.1 °F 29% 30.17 in 10.0 mi West 17.3 mph 24.2 mph N/A   Clear
7:53 PM 19.0 °F 7.5 °F -7.1 °F 31% 30.22 in 10.0 mi WNW 10.4 mph 21.9 mph N/A   Clear
8:53 PM 16.0 °F 4.4 °F -5.1 °F 39% 30.26 in 10.0 mi West 9.2 mph 18.4 mph N/A   Clear
9:53 PM 15.1 °F 1.8 °F -5.1 °F 41% 30.29 in 10.0 mi West 11.5 mph - N/A   Clear
10:53 PM 12.9 °F 3.8 °F -5.1 °F 45% 30.29 in 10.0 mi West 5.8 mph - N/A   Clear
11:53 PM 12.0 °F 1.5 °F -5.1 °F 46% 30.30 in 10.0 mi WSW 6.9 mph - N/A   Clear